Custer, SD

3:37 PM MDT on June 27, 2017 (GMT -0600)
Custer County

Weather History for KCUT - October, 2010

Change the Weather History Date:

Friday, October 29, 2010

  Actual Average Record
Temperature  
Mean Temperature 51 °F 39 °F  
Max Temperature 60 °F 50 °F 72 °F (1990)
Min Temperature 42 °F 28 °F 4 °F (1991)
Degree Days  
Heating Degree Days 14 26  
Month to date heating degree days 488 640  
Since 1 July heating degree days 912 1126  
Cooling Degree Days 0 0  
Month to date cooling degree days 0 0  
Year to date cooling degree days 179 177  
Growing Degree Days 2 (Base 50)    
Moisture  
Dew Point 18 °F    
Average Humidity 28    
Maximum Humidity 36    
Minimum Humidity 19    
Precipitation  
Precipitation 0.00 in 0.02 in 0.72 in (1961)
Month to date precipitation 0.90 1.43  
Year to date precipitation 19.53 17.92  
Sea Level Pressure  
Sea Level Pressure 29.95 in    
Wind  
Wind Speed 10 mph (West)    
Max Wind Speed 32 mph    
Max Gust Speed 44 mph    
Visibility 10 miles    
Events      
T = Trace of Precipitation, MM = Missing Value Source: NWS Daily Summary

Daily Weather History Graph

Daily Weather History Graph

Search for Another Location

Airport or City:

Trip Planner

Search our weather history database for the weather conditions in past years. The results will help you decide how hot, cold, wet, or windy it might be!

Date:

Astronomy

Oct. 29, 2010 Rise Set
Actual Time 7:26 AM MDT 5:49 PM MDT
Civil Twilight 6:56 AM MDT 6:18 PM MDT
Nautical Twilight 6:23 AM MDT 6:52 PM MDT
Astronomical Twilight 5:49 AM MDT 7:25 PM MDT
Moon 11:30 PM MDT (10/29) 1:32 PM MDT (10/29)
Length of Visible Light 11h 22m
Length of Day
10h 22m
Waning Gibbous, 59% of the Moon is Illuminated
Oct 29
Waning Gibbous
Oct 30
Last Quarter
Nov 5
New
Nov 13
First Quarter
Nov 21
Full

Hourly Weather History & Observations

Time (MDT) Temp. Windchill Dew Point Humidity Pressure Visibility Wind Dir Wind Speed Gust Speed Precip Events Conditions
12:53 AM 43.0 °F 36.8 °F 12.0 °F 28% 30.14 in 10.0 mi West 11.5 mph - N/A   Clear
1:53 AM 43.0 °F 37.2 °F 12.0 °F 28% 30.12 in 10.0 mi West 10.4 mph - N/A   Clear
2:53 AM 44.1 °F 39.0 °F 12.0 °F 27% 30.10 in 10.0 mi West 9.2 mph - N/A   Clear
3:53 AM 44.1 °F 38.1 °F 12.0 °F 27% 30.08 in 10.0 mi WSW 11.5 mph - N/A   Clear
4:53 AM 44.1 °F 38.1 °F 12.9 °F 28% 30.05 in 10.0 mi West 11.5 mph - N/A   Clear
5:53 AM 46.0 °F 40.2 °F 14.0 °F 28% 30.05 in 10.0 mi West 12.7 mph - N/A   Clear
6:53 AM 46.0 °F 40.2 °F 14.0 °F 28% 30.06 in 10.0 mi West 12.7 mph - N/A   Clear
7:53 AM 46.0 °F 39.9 °F 16.0 °F 30% 30.04 in 10.0 mi West 13.8 mph 21.9 mph N/A   Clear
8:53 AM 48.9 °F - 19.0 °F 31% 30.02 in 10.0 mi WSW 9.2 mph 16.1 mph N/A   Clear
9:53 AM 52.0 °F - 19.0 °F 27% 29.98 in 10.0 mi West 15.0 mph 27.6 mph N/A   Clear
10:53 AM 53.1 °F - 19.9 °F 27% 29.95 in 10.0 mi WSW 12.7 mph 35.7 mph N/A   Clear
11:53 AM 55.0 °F - 21.0 °F 27% 29.89 in 10.0 mi West 26.5 mph 34.5 mph N/A   Clear
12:53 PM 55.9 °F - 21.0 °F 26% 29.88 in 10.0 mi WSW 19.6 mph 35.7 mph N/A   Clear
1:53 PM 57.9 °F - 21.0 °F 24% 29.88 in 10.0 mi West 11.5 mph 26.5 mph N/A   Clear
2:53 PM 59.0 °F - 19.9 °F 22% 29.87 in 10.0 mi WNW 15.0 mph 19.6 mph N/A   Clear
3:53 PM 60.1 °F - 18.0 °F 20% 29.87 in 10.0 mi Variable 4.6 mph 17.3 mph N/A   Clear
4:53 PM 57.0 °F - 17.1 °F 21% 29.88 in 10.0 mi NW 5.8 mph - N/A   Clear
5:53 PM 51.1 °F - 18.0 °F 27% 29.88 in 10.0 mi SW 3.5 mph - N/A   Clear
6:53 PM 51.1 °F - 17.1 °F 26% 29.88 in 10.0 mi Variable 3.5 mph - N/A   Clear
7:53 PM 53.1 °F - 17.1 °F 24% 29.87 in 10.0 mi West 5.8 mph - N/A   Clear
8:53 PM 55.0 °F - 21.0 °F 27% 29.84 in 10.0 mi WSW 9.2 mph - N/A   Clear
9:53 PM 53.1 °F - 21.9 °F 30% 29.84 in 10.0 mi WSW 6.9 mph - N/A   Clear
10:53 PM 51.1 °F - 24.1 °F 35% 29.86 in 10.0 mi WSW 6.9 mph - N/A   Clear
11:53 PM 50.0 °F - 24.1 °F 36% 29.84 in 10.0 mi WSW 5.8 mph - N/A   Clear